Fecha, hora, temperatura, viento dirección y velocidad, humedad y presión.

  • 23-01-2020 21:00:00 | 11.30°C | Este |9.00 km/h | 86.00% | 0.00 hPa
  • 23-01-2020 20:00:00 | 10.50°C | Sudeste |8.00 km/h | 87.00% | 0.00 hPa
  • 23-01-2020 19:00:00 | 10.50°C | Este |8.00 km/h | 87.00% | 0.00 hPa
  • 23-01-2020 18:00:00 | 10.90°C | Este |12.00 km/h | 87.00% | 0.00 hPa
  • 23-01-2020 17:00:00 | 11.50°C | Este |15.00 km/h | 87.00% | 0.00 hPa
  • 23-01-2020 16:00:00 | 11.50°C | Este |14.00 km/h | 89.00% | 0.00 hPa
  • 23-01-2020 15:00:00 | 11.50°C | Este |12.00 km/h | 84.00% | 0.00 hPa
  • 23-01-2020 14:00:00 | 11.40°C | Este |13.00 km/h | 81.00% | 0.00 hPa
  • 23-01-2020 13:00:00 | 11.00°C | Este |11.00 km/h | 81.00% | 0.00 hPa
  • 23-01-2020 12:00:00 | 10.60°C | Sudeste |13.00 km/h | 78.00% | 0.00 hPa
  • 23-01-2020 11:00:00 | 9.50°C | Calma |0.00 km/h | 77.00% | 0.00 hPa
  • 23-01-2020 10:00:00 | 8.30°C | Sur |4.00 km/h | 79.00% | 0.00 hPa
  • 23-01-2020 08:00:00 | 8.60°C | Sudeste |13.00 km/h | 84.00% | 0.00 hPa
  • 23-01-2020 08:00:00 | 8.60°C | Sudeste |13.00 km/h | 84.00% | 0.00 hPa
  • 23-01-2020 07:00:00 | 7.60°C | Sur |6.00 km/h | 87.00% | 0.00 hPa
  • 23-01-2020 06:00:00 | 6.70°C | Sur |8.00 km/h | 91.00% | 0.00 hPa
  • 23-01-2020 05:00:00 | 8.00°C | Sur |5.00 km/h | 89.00% | 0.00 hPa
  • 23-01-2020 04:00:00 | 7.40°C | Sur |6.00 km/h | 92.00% | 0.00 hPa
  • 23-01-2020 03:00:00 | 8.80°C | Sudeste |7.00 km/h | 93.00% | 0.00 hPa
  • 23-01-2020 02:00:00 | 8.80°C | Sudeste |8.00 km/h | 93.00% | 0.00 hPa
  • 23-01-2020 01:00:00 | 9.20°C | Este |11.00 km/h | 93.00% | 0.00 hPa
  • 23-01-2020 00:00:00 | 9.40°C | Sudeste |14.00 km/h | 93.00% | 0.00 hPa
  • 22-01-2020 23:00:00 | 9.50°C | Este |9.00 km/h | 91.00% | 0.00 hPa
  • 22-01-2020 22:00:00 | 9.70°C | Este |14.00 km/h | 92.00% | 0.00 hPa
    • Información sobre el estado de las mareas, altura de la marejada, temperatura del agua y otros datos de Gijón en Asturias.

      Surf Gijón